Location: ??????
(41.3794°N, 22.5014°E)
Time: 21:03:10
(UTC+00:00)

BREEZE-M DEB (TANK) - Pass Details

Date: 30 November 2020
Orbit: 303 x 17164 km, 49.4° (Epoch: 18 January)

Event Time Altitude Azimuth Distance (km) Brightness Sun altitude
Rises 16:38:51 0° 294° (WNW) 2,032 6.6 -17.8°
Reaches altitude 10° 16:40:49 10° 319° (NW) 1,214 4.9 -18.2°
Enters shadow 16:41:51 16° 347° (NNW) 1,004 4.1 -18.4°
